Location: Unspecified
(40.7945°N, 0.0000°E)
Time: 08:05:59
(UTC+00:00)

deb Explorer IX - Pass Details

Date: 30 January 2021
Orbit: 537 x 1103 km, 38.8° (Epoch: 23 February)

Event Time Altitude Azimuth Distance (km) Brightness Sun altitude
Rises 17:28:12 0° 268° (W) 3,858 ? -3.1°
Reaches altitude 10° 17:31:03 10° 267° (W) 2,855 ? -3.6°
Maximum altitude 17:38:00 76° 183° (S) 990 ? -4.9°
Drops below altitude 10° 17:44:02 10° 99° (E) 2,493 ? -6.0°
Enters shadow 17:45:23 - 98° (E) 2,979 ? -6.2°
